TimePDT,TemperatureF,Dew PointF,Humidity,Sea Level PressureIn,VisibilityMPH,Wind Direction,Wind SpeedMPH,Gust SpeedMPH,PrecipitationIn,Events,Conditions,WindDirDegrees,DateUTC
12:15 AM,41.9,36.1,80,29.98,10.0,Calm,Calm,-,N/A,,Scattered Clouds,0,2013-03-28 07:15:00
12:35 AM,42.1,36.7,81,29.99,10.0,Calm,Calm,-,N/A,,Clear,0,2013-03-28 07:35:00
12:55 AM,41.7,36.5,82,29.99,10.0,Calm,Calm,-,N/A,,Clear,0,2013-03-28 07:55:00
1:15 AM,40.6,36.1,84,29.99,10.0,East,3.5,-,N/A,,Clear,90,2013-03-28 08:15:00
1:35 AM,40.1,35.8,85,29.99,10.0,East,5.8,-,N/A,,Clear,80,2013-03-28 08:35:00
1:55 AM,37.4,35.1,91,30.00,10.0,ESE,10.4,-,N/A,,Clear,120,2013-03-28 08:55:00
2:15 AM,37.4,35.2,92,30.00,10.0,ESE,8.1,-,N/A,,Scattered Clouds,110,2013-03-28 09:15:00
2:35 AM,37.9,35.6,91,30.00,10.0,ESE,9.2,-,N/A,,Mostly Cloudy,110,2013-03-28 09:35:00
2:55 AM,38.3,35.6,90,30.00,10.0,East,6.9,-,N/A,,Mostly Cloudy,90,2013-03-28 09:55:00
3:15 AM,38.5,35.8,90,30.00,10.0,Calm,Calm,-,N/A,,Overcast,0,2013-03-28 10:15:00
3:35 AM,37.9,35.6,91,30.00,10.0,Calm,Calm,-,N/A,,Overcast,0,2013-03-28 10:35:00
3:55 AM,37.9,35.6,91,30.00,10.0,Calm,Calm,-,N/A,,Overcast,0,2013-03-28 10:55:00
4:15 AM,37.9,35.8,92,30.01,10.0,WNW,3.5,-,N/A,,Overcast,290,2013-03-28 11:15:00
4:35 AM,38.5,36.5,93,30.01,10.0,Calm,Calm,-,N/A,,Overcast,0,2013-03-28 11:35:00
4:55 AM,39.4,36.5,89,30.01,10.0,Calm,Calm,-,N/A,,Overcast,0,2013-03-28 11:55:00
5:15 AM,38.8,36.1,90,30.01,10.0,Calm,Calm,-,N/A,,Overcast,0,2013-03-28 12:15:00
5:35 AM,38.7,36.0,90,30.01,10.0,Calm,Calm,-,N/A,,Mostly Cloudy,0,2013-03-28 12:35:00
5:55 AM,37.0,35.1,93,30.01,10.0,ESE,10.4,-,N/A,,Scattered Clouds,120,2013-03-28 12:55:00
6:15 AM,36.7,35.1,94,30.02,10.0,ESE,9.2,-,N/A,,Mostly Cloudy,110,2013-03-28 13:15:00
6:35 AM,37.4,35.2,92,30.02,10.0,East,8.1,-,N/A,,Overcast,100,2013-03-28 13:35:00
6:55 AM,37.0,35.2,93,30.03,10.0,East,8.1,-,N/A,,Overcast,90,2013-03-28 13:55:00
7:15 AM,37.9,35.8,92,30.04,10.0,East,4.6,-,N/A,,Overcast,100,2013-03-28 14:15:00
7:35 AM,38.8,36.0,89,30.04,10.0,ESE,6.9,-,N/A,,Overcast,120,2013-03-28 14:35:00
7:55 AM,39.7,36.5,88,30.04,10.0,East,6.9,-,N/A,,Overcast,100,2013-03-28 14:55:00
8:15 AM,40.3,37.0,88,30.04,10.0,ESE,6.9,-,N/A,,Overcast,110,2013-03-28 15:15:00
8:35 AM,41.2,37.2,86,30.04,10.0,East,5.8,-,N/A,,Overcast,90,2013-03-28 15:35:00
8:55 AM,42.8,38.1,84,30.03,10.0,East,8.1,-,N/A,,Overcast,80,2013-03-28 15:55:00
9:15 AM,44.4,38.7,80,30.05,10.0,East,5.8,-,N/A,,Overcast,80,2013-03-28 16:15:00
9:35 AM,45.5,39.2,79,30.05,10.0,ENE,5.8,-,N/A,,Mostly Cloudy,70,2013-03-28 16:35:00
9:55 AM,46.6,39.9,78,30.05,10.0,NE,4.6,-,N/A,,Mostly Cloudy,50,2013-03-28 16:55:00
10:15 AM,48.2,39.7,73,30.05,10.0,East,3.5,-,N/A,,Mostly Cloudy,80,2013-03-28 17:15:00
10:35 AM,48.6,39.9,72,30.05,10.0,Calm,Calm,-,N/A,,Overcast,0,2013-03-28 17:35:00
10:55 AM,49.8,40.5,70,30.05,10.0,NW,4.6,-,N/A,,Overcast,320,2013-03-28 17:55:00
11:15 AM,50.4,40.6,69,30.05,10.0,Calm,Calm,-,N/A,,Overcast,0,2013-03-28 18:15:00
11:35 AM,51.6,41.5,68,30.05,10.0,West,4.6,-,N/A,,Overcast,280,2013-03-28 18:35:00
11:55 AM,55.2,41.9,61,30.04,10.0,West,4.6,-,N/A,,Scattered Clouds,270,2013-03-28 18:55:00
12:15 PM,54.3,41.4,62,30.04,10.0,WNW,4.6,-,N/A,,Scattered Clouds,300,2013-03-28 19:15:00
12:35 PM,55.6,41.2,58,30.03,10.0,WNW,3.5,-,N/A,,Scattered Clouds,300,2013-03-28 19:35:00
12:55 PM,55.6,40.1,56,30.03,10.0,WNW,3.5,-,N/A,,Scattered Clouds,290,2013-03-28 19:55:00
1:15 PM,56.5,39.9,54,30.03,10.0,WNW,3.5,-,N/A,,Scattered Clouds,290,2013-03-28 20:15:00
1:35 PM,56.3,40.3,55,30.02,10.0,WNW,5.8,-,N/A,,Mostly Cloudy,300,2013-03-28 20:35:00
1:55 PM,57.2,39.9,52,30.02,10.0,NW,6.9,-,N/A,,Mostly Cloudy,320,2013-03-28 20:55:00
2:15 PM,58.6,39.6,49,30.01,10.0,WNW,8.1,-,N/A,,Scattered Clouds,290,2013-03-28 21:15:00
2:35 PM,58.1,38.8,49,30.01,10.0,WNW,8.1,-,N/A,,Mostly Cloudy,290,2013-03-28 21:35:00
2:55 PM,57.6,38.5,49,30.01,10.0,WNW,6.9,-,N/A,,Overcast,300,2013-03-28 21:55:00
3:15 PM,58.1,37.6,46,30.00,10.0,WNW,6.9,-,N/A,,Overcast,290,2013-03-28 22:15:00
3:35 PM,58.5,37.8,46,30.00,10.0,WNW,6.9,-,N/A,,Overcast,290,2013-03-28 22:35:00
3:55 PM,58.3,37.2,45,30.00,10.0,WNW,8.1,-,N/A,,Mostly Cloudy,300,2013-03-28 22:55:00
4:15 PM,58.1,37.6,46,30.00,10.0,West,8.1,-,N/A,,Overcast,280,2013-03-28 23:15:00
4:35 PM,57.4,37.9,48,30.00,10.0,West,13.8,-,N/A,,Overcast,280,2013-03-28 23:35:00
4:55 PM,56.8,37.9,49,30.01,10.0,West,11.5,-,N/A,,Mostly Cloudy,280,2013-03-28 23:55:00
5:15 PM,56.8,38.1,50,30.01,10.0,West,9.2,-,N/A,,Scattered Clouds,270,2013-03-29 00:15:00
5:35 PM,56.1,38.8,52,30.01,10.0,West,9.2,-,N/A,,Mostly Cloudy,260,2013-03-29 00:35:00
5:55 PM,54.5,39.4,57,30.01,10.0,SW,5.8,-,N/A,,Mostly Cloudy,230,2013-03-29 00:55:00
6:15 PM,53.8,39.6,59,30.01,10.0,SW,5.8,-,N/A,,Scattered Clouds,220,2013-03-29 01:15:00
6:35 PM,53.6,39.6,59,30.02,10.0,SW,4.6,-,N/A,,Mostly Cloudy,230,2013-03-29 01:35:00
6:55 PM,53.1,39.4,60,30.02,10.0,West,4.6,-,N/A,,Overcast,270,2013-03-29 01:55:00
7:15 PM,51.1,42.3,72,30.04,10.0,West,10.4,-,N/A,Rain,Rain,270,2013-03-29 02:15:00
7:35 PM,50.2,42.4,75,30.05,10.0,WNW,6.9,-,N/A,,Overcast,290,2013-03-29 02:35:00
7:55 PM,50.0,42.8,76,30.05,10.0,WSW,4.6,-,N/A,,Overcast,250,2013-03-29 02:55:00
8:15 PM,49.5,42.6,77,30.06,10.0,WNW,4.6,-,N/A,Rain,Light Rain,290,2013-03-29 03:15:00
8:35 PM,48.4,43.0,82,30.06,10.0,West,5.8,-,N/A,,Mostly Cloudy,260,2013-03-29 03:35:00
8:55 PM,48.7,42.4,79,30.07,10.0,West,5.8,-,N/A,,Overcast,260,2013-03-29 03:55:00
9:15 PM,46.8,41.9,83,30.08,10.0,West,4.6,-,N/A,,Scattered Clouds,260,2013-03-29 04:15:00
9:35 PM,45.9,41.7,85,30.09,10.0,West,5.8,-,N/A,,Clear,270,2013-03-29 04:35:00
9:55 PM,44.8,41.2,87,30.10,10.0,West,6.9,-,N/A,,Clear,260,2013-03-29 04:55:00
10:15 PM,45.0,41.4,87,30.10,10.0,West,6.9,-,N/A,,Mostly Cloudy,270,2013-03-29 05:15:00
10:35 PM,46.0,42.8,88,30.10,10.0,West,6.9,-,N/A,,Mostly Cloudy,270,2013-03-29 05:35:00
10:55 PM,44.4,41.7,90,30.11,10.0,West,3.5,-,N/A,,Overcast,260,2013-03-29 05:55:00
11:15 PM,45.5,42.4,89,30.11,10.0,West,3.5,-,N/A,,Scattered Clouds,260,2013-03-29 06:15:00
11:35 PM,45.5,42.8,90,30.11,10.0,Calm,Calm,-,N/A,,Scattered Clouds,0,2013-03-29 06:35:00
11:55 PM,45.3,42.4,90,30.11,10.0,Calm,Calm,-,N/A,,Scattered Clouds,0,2013-03-29 06:55:00